Dewpoint
15 11 7 10 13 13 14 16 17 16 12 12 13 6 1 2 4 6 6 3 -2 2 6 8 6 2 5 7 6 2 4 4 4 9 16 14 24 32 37 35 39 41 60 65 66 65 65 66 66 67 67 67 68 69 68 68 68 68 67 68 67 69 69 67 67 66 65 64 65 65 65 66 68 66 66 67 68 67 68 67 66 67 69 69 69 70
13 13 8 6 12 13 13 14 15 15 12 12 12 5 -1 3 3 4 2 -1 -2 -2 -2 6 5 6 6 5 5 5 4 1 4 9 14 15 21 31 35 32 29 35 51 65 65 65 66 65 67 68 67 68 67 69 67 67 67 68 67 68 68 68 68 67 67 66 66 66 65 65 64 65 65 65 64 64 66 67 68 69 68 68 69 70 71 71
12 11 9 5 9 14 13 13 13 13 12 13 11 6 1 4 4 2 -2 -4 -2 -3 -3 -1 5 7 8 5 4 7 4 8 9 11 14 19 25 29 27 27 32 31 56 63 63 64 63 65 67 67 67 67 68 69 67 67 68 68 67 67 68 68 67 67 67 67 66 66 66 65 65 65 65 67 66 65 66 67 66 69 69 69 71 70 70 68
10 10 9 7 7 13 15 12 13 13 15 14 11 11 6 -1 -1 2 -3 -5 -2 -1 -7 0 6 7 9 9 7 8 7 8 3 3 21 28 24 26 30 32 32 27 62 63 63 63 63 64 65 66 67 67 68 68 68 68 68 67 66 67 67 67 67 67 67 66 67 67 68 67 68 67 67 65 67 68 68 68 68 68 68 69 68 67 67 66
7 9 11 8 6 11 14 15 14 15 14 15 12 10 9 -3 -1 2 -4 -5 -7 -5 -4 3 7 7 8 7 6 6 9 6 8 15 25 28 30 29 31 22 35 33 60 63 63 63 64 64 64 66 66 66 68 68 68 68 68 67 66 67 67 66 66 67 67 67 67 67 67 67 68 66 68 67 66 66 65 66 66 67 68 66 67 68 67 67
8 8 10 7 5 8 16 15 15 15 14 14 13 10 6 3 3 -0 -1 -6 -7 -2 -3 -2 7 8 10 6 4 3 4 7 9 10 7 21 27 26 31 34 36 43 64 64 63 63 63 63 64 65 66 66 68 68 68 68 68 68 66 67 67 66 66 67 67 67 67 66 66 65 65 63 65 65 65 65 65 65 65 67 67 68 67 68 69 69
11 8 8 9 5 5 14 16 15 16 15 11 11 11 7 5 -1 1 1 -5 -6 -1 -4 0 6 8 7 3 5 6 2 4 11 13 7 7 14 19 18 21 28 33 56 64 63 62 63 64 64 65 66 66 67 67 68 69 68 68 67 67 67 66 67 67 67 67 66 66 65 65 65 64 64 64 65 67 69 68 68 68 68 68 68 67 68 67
15 11 8 10 8 4 11 15 15 13 12 9 12 13 11 8 3 3 -2 -2 -4 -4 -6 2 4 5 2 3 5 4 5 2 6 8 13 4 13 16 20 20 29 31 51 59 61 62 62 63 64 64 65 66 66 67 68 69 68 67 67 67 67 67 66 67 66 67 67 65 66 65 65 64 65 65 65 67 68 68 68 66 67 67 68 67 68 68
15 14 7 7 10 7 9 15 15 16 12 12 14 14 10 8 4 4 4 2 -4 0 3 3 2 5 3 5 3 3 3 5 5 9 10 9 10 19 21 20 30 36 42 54 55 58 62 63 64 64 64 64 66 67 68 68 68 68 68 67 67 67 66 67 66 67 66 66 66 65 65 64 64 65 66 67 67 67 67 66 67 67 67 68 68 69
16 18 9 7 9 9 10 15 15 13 12 13 14 12 8 3 5 6 3 3 1 5 8 -1 -5 1 2 3 -0 4 3 6 9 8 8 11 15 14 21 25 31 34 38 50 58 58 61 63 63 64 65 65 67 68 68 69 69 68 68 67 67 67 67 67 66 67 67 66 66 65 65 64 64 65 67 67 66 66 67 65 66 67 67 67 68 69
14 26 20 5 8 11 12 14 14 13 12 12 10 9 4 4 9 9 5 5 6 9 4 -2 -0 -1 1 3 3 5 7 8 9 12 13 14 15 19 25 22 27 29 36 44 56 61 62 63 63 65 65 65 67 68 68 69 68 68 67 67 67 67 66 66 66 66 66 66 66 65 65 65 65 65 66 66 65 65 65 65 66 67 67 67 68 67
14 14 15 10 11 14 13 14 16 15 13 10 9 9 8 11 10 8 10 9 9 7 1 -1 1 0 2 4 2 5 5 7 10 11 15 16 11 14 27 22 23 28 33 38 58 60 62 63 63 64 63 64 66 68 68 68 68 68 67 66 66 66 66 66 66 66 66 66 65 65 65 65 65 65 65 65 65 64 64 65 65 66 66 65 67 67
17 17 16 12 14 16 16 13 14 11 13 11 11 9 8 8 13 9 7 11 6 4 2 -1 2 1 1 9 4 -0 -5 5 11 7 11 13 10 18 20 23 25 29 32 39 57 62 63 63 63 63 63 64 66 67 68 67 68 68 66 66 65 65 66 66 66 66 66 65 65 64 65 66 66 66 65 65 65 64 65 65 65 65 65 65 65 66
16 17 14 11 11 19 19 16 14 13 13 10 10 10 9 7 7 11 5 9 5 3 1 -0 2 1 4 3 6 6 5 3 9 17 15 12 20 22 20 23 25 29 33 41 59 63 63 63 63 63 63 64 66 67 67 67 67 67 66 66 66 65 66 66 66 66 66 65 65 65 66 66 65 66 65 65 64 64 64 66 65 65 65 65 65 65
13 12 12 12 13 18 20 20 21 14 14 10 10 9 11 9 7 11 4 8 7 3 2 1 2 7 3 7 5 10 11 11 11 13 20 22 21 27 17 19 21 31 37 43 55 61 64 64 63 63 64 65 66 66 66 66 67 67 66 66 66 65 66 66 66 66 66 65 65 65 66 65 65 66 66 66 66 66 66 66 65 65 65 65 65 65
13 12 12 11 17 20 21 22 24 17 14 11 9 8 8 9 9 5 9 8 9 9 8 5 10 7 6 10 14 10 10 19 24 22 26 25 22 23 22 24 28 33 35 40 55 61 63 64 63 63 63 65 66 66 66 66 66 67 66 66 66 65 66 66 66 66 66 65 66 66 65 65 66 67 67 67 66 67 66 66 65 65 65 65 65 65
13 14 13 10 15 19 21 23 22 19 15 13 9 8 7 8 5 13 18 17 24 13 10 12 10 7 7 5 9 13 11 17 21 20 21 27 27 28 31 33 35 35 34 44 59 59 63 63 63 63 63 65 65 66 65 65 66 67 66 65 65 65 66 66 66 67 67 66 66 66 65 66 67 67 66 66 66 66 67 67 66 65 64 64 64 64
20 12 13 12 13 17 23 23 22 22 19 12 10 9 8 7 5 14 8 15 15 9 12 8 4 5 5 9 9 9 12 19 22 18 22 34 29 30 34 37 37 38 41 50 61 62 63 63 63 63 64 64 65 65 65 65 66 67 67 65 64 64 65 66 66 67 67 66 66 66 65 66 66 66 66 66 65 66 65 65 65 64 63 63 63 63
25 15 13 12 15 18 22 23 21 20 20 10 9 9 6 15 10 11 16 13 12 12 7 6 5 6 5 13 6 11 12 22 23 22 21 25 29 33 36 37 37 39 46 50 62 63 63 62 63 63 64 64 64 65 65 65 66 67 66 65 65 64 65 66 66 66 66 66 66 66 65 66 66 66 66 66 66 66 65 64 64 63 63 63 63 63
24 21 19 13 12 17 20 18 18 19 20 16 10 7 7 11 12 11 16 13 12 11 13 7 6 9 3 9 14 15 19 24 22 20 19 22 31 36 35 36 38 41 47 48 60 61 63 63 63 63 64 64 63 64 65 65 66 66 66 65 65 65 66 66 66 66 66 66 66 65 65 65 65 65 65 65 66 65 64 64 63 63 62 62 62 62
24 25 21 15 12 13 15 17 18 18 17 13 12 7 6 16 10 9 15 7 11 12 10 11 8 10 15 9 15 14 17 25 26 26 29 28 29 35 36 40 41 43 48 55 59 61 62 62 63 63 64 63 63 64 64 64 66 66 65 65 65 65 65 65 66 66 65 66 66 65 65 65 65 65 65 65 65 65 64 63 63 62 62 62 61 62
23 26 25 18 11 13 16 19 19 19 14 13 13 9 7 8 11 8 12 7 7 9 14 10 12 17 16 7 14 17 22 19 22 25 28 29 28 35 40 42 45 46 55 60 61 62 63 63 62 63 63 62 63 63 63 64 66 66 65 65 65 65 65 65 66 65 65 65 65 65 65 65 65 64 64 65 64 63 63 63 63 62 61 61 62 62
26 31 27 21 10 10 14 18 19 18 15 15 11 8 7 10 11 9 13 11 7 6 7 11 15 18 20 17 19 23 22 16 17 18 24 27 31 38 42 43 45 54 55 56 59 61 62 63 62 62 62 62 62 62 62 64 65 65 65 65 65 64 64 65 64 64 64 64 65 66 65 65 64 64 64 64 63 62 62 62 62 62 61 61 61 62
34 28 25 23 13 12 14 18 20 19 17 14 11 10 8 8 8 10 14 15 11 10 8 11 14 19 33 23 23 30 23 17 19 24 24 29 36 38 40 44 49 53 53 55 58 61 63 63 62 61 61 61 62 61 63 65 64 64 64 64 64 64 64 64 64 64 64 64 65 66 65 64 64 64 64 63 62 61 61 61 61 61 61 61 62 62
22 25 24 20 14 12 14 14 16 18 18 16 15 14 10 6 7 12 12 20 16 13 7 10 10 19 34 38 36 28 22 20 18 20 26 28 40 39 40 45 48 51 52 53 57 59 61 61 61 60 60 59 60 61 64 64 64 64 65 65 64 64 64 64 64 63 64 65 65 65 65 65 64 64 63 62 62 61 61 60 61 61 60 61 61 61
24 31 26 22 15 16 13 14 15 18 16 17 14 12 11 4 10 16 15 18 16 17 5 11 8 18 29 30 28 24 22 23 23 19 20 31 36 37 41 45 47 49 51 54 59 59 60 60 59 60 60 59 60 62 64 64 64 64 64 64 64 64 64 64 64 64 64 65 65 65 64 64 64 63 62 62 61 61 60 60 60 60 61 61 60 60
34 32 31 28 16 15 14 16 18 18 16 15 14 12 7 6 7 15 19 19 12 15 22 24 25 26 26 24 23 26 32 33 28 25 22 25 33 38 40 47 50 51 51 55 59 60 59 60 59 59 60 59 61 63 63 63 64 64 64 64 64 64 63 63 63 63 64 64 64 64 63 63 63 62 61 61 61 60 60 59 60 60 60 60 59 59
30 31 29 29 27 14 14 15 16 18 15 14 13 12 10 9 11 18 20 19 18 15 15 27 31 30 26 24 21 27 31 35 39 36 29 33 44 43 48 50 50 50 54 58 59 58 59 59 59 59 60 61 63 63 63 63 64 64 63 63 63 63 63 63 62 63 63 64 63 62 62 62 62 61 61 60 60 59 59 59 59 59 59 58 58 58
35 29 29 26 23 25 17 15 14 14 15 15 13 12 12 10 13 22 27 17 26 18 21 28 31 32 33 37 35 37 38 38 35 43 47 48 48 49 48 50 51 50 54 57 58 59 59 58 59 60 61 62 63 63 63 64 64 63 63 63 63 63 62 62 63 63 63 62 62 62 61 61 60 60 60 59 58 58 58 58 58 58 58 58 57 57
35 28 30 26 25 21 22 19 15 15 13 12 13 13 12 14 13 16 18 21 24 30 26 29 36 36 36 36 38 41 43 41 39 43 46 46 48 48 48 50 50 49 50 56 57 58 58 58 60 61 62 63 63 64 64 64 64 63 63 63 63 62 62 62 63 63 63 62 61 61 61 60 59 59 59 58 58 58 58 58 58 57 56 56 56 56
34 27 35 34 25 24 25 18 12 13 14 13 11 12 13 16 11 11 19 31 32 28 27 29 34 33 35 41 46 47 47 45 38 37 45 47 45 47 47 44 45 46 48 55 56 56 57 59 60 61 62 63 63 64 64 64 63 63 62 62 62 62 62 62 62 62 62 61 61 61 60 59 58 58 58 58 57 57 57 57 57 56 56 56 56 57
36 29 34 33 28 24 22 19 12 12 15 14 13 14 13 15 21 18 19 31 30 27 27 27 29 32 39 45 48 49 49 47 44 45 48 49 46 46 46 47 47 48 53 55 56 55 56 58 61 61 62 63 63 63 63 63 62 62 62 62 62 62 62 62 61 61 61 60 60 60 58 58 58 57 57 57 56 56 56 56 56 55 55 55 55 56
38 34 31 29 25 23 23 19 16 14 18 16 20 19 16 19 17 14 11 21 32 32 27 26 33 35 35 43 43 48 51 47 48 49 47 45 48 48 49 50 50 51 53 54 54 55 57 60 61 62 63 63 62 62 62 62 62 61 62 62 63 63 62 61 62 61 60 59 59 58 58 58 57 56 56 56 56 56 56 56 55 54 54 54 55 52
38 37 31 36 29 21 23 22 20 16 14 16 24 23 20 21 16 18 20 26 30 27 28 28 28 30 34 37 40 49 50 53 52 50 50 50 50 51 51 51 52 52 53 54 55 58 59 61 62 62 62 62 62 61 61 61 61 61 62 62 62 61 60 60 60 59 59 58 58 57 57 57 56 56 56 56 56 56 55 55 54 54 54 53 52 51
37 36 30 34 30 26 24 23 22 18 15 24 24 20 17 21 13 13 16 14 17 18 22 23 23 27 35 37 40 46 52 54 54 48 49 50 51 50 49 51 52 52 54 55 56 59 61 62 62 62 62 62 61 61 61 61 61 61 61 62 61 60 60 60 59 58 58 57 57 57 56 56 55 55 55 55 55 55 54 54 53 53 52 51 51 50
30 31 32 31 31 31 20 19 15 14 25 31 27 26 25 21 23 21 20 17 14 18 20 24 25 24 40 42 42 45 50 53 54 57 57 52 52 52 51 52 53 54 55 56 58 61 62 61 61 61 61 61 61 61 61 61 62 61 61 61 60 59 59 59 58 57 57 56 56 56 56 55 54 54 54 54 54 54 53 52 52 51 51 51 50 50
33 40 34 30 31 21 19 17 16 26 22 24 29 23 17 17 19 22 21 16 21 20 21 20 22 23 44 43 45 48 51 52 55 53 56 54 52 55 54 54 57 56 58 60 61 62 63 61 61 61 61 61 61 61 61 61 61 61 60 60 59 58 58 58 57 56 56 56 56 55 56 55 54 54 54 54 53 52 52 51 51 51 50 50 50 49
30 33 37 32 28 23 16 19 23 18 18 20 23 27 27 31 29 30 25 19 25 19 20 20 24 28 38 45 47 50 52 50 50 52 55 56 56 58 55 56 58 57 59 61 63 62 62 62 61 61 61 60 60 60 61 61 61 60 60 60 59 57 57 56 56 56 56 56 56 55 55 54 53 53 53 53 52 52 51 51 51 50 50 49 49 48
30 38 38 34 29 28 20 23 19 19 23 36 34 33 33 20 22 32 19 12 20 24 26 29 29 30 37 46 48 51 50 48 47 50 55 57 58 57 56 58 58 58 60 61 61 61 61 61 61 60 60 60 60 60 61 60 60 59 59 59 58 57 56 56 55 56 55 55 54 54 54 53 53 53 53 52 52 52 51 51 51 51 51 50 48 47
33 32 31 28 27 27 23 23 19 27 30 39 41 41 27 30 31 23 14 16 33 34 36 34 31 33 47 48 51 52 49 45 51 51 55 57 58 57 57 57 60 60 61 62 60 60 60 60 60 61 60 60 60 61 61 60 59 59 59 59 57 56 55 55 55 55 55 55 54 53 53 53 52 52 52 51 52 52 51 51 50 50 50 49 47 46
30 30 30 29 24 24 25 31 33 35 39 44 44 43 32 38 31 18 15 34 43 42 39 39 35 49 48 49 52 53 51 53 53 55 56 56 56 57 58 58 60 60 60 60 59 56 60 60 60 60 60 60 60 60 60 59 59 59 59 58 57 56 56 56 55 54 54 54 53 52 52 52 52 53 52 52 52 52 52 51 50 50 50 48 47 46
33 35 28 29 25 21 29 28 31 35 41 44 42 41 35 33 25 18 40 48 47 41 40 41 48 49 49 49 51 51 53 55 56 56 56 57 57 57 58 58 60 59 59 58 57 58 59 59 59 59 59 59 59 59 59 59 58 58 58 57 56 56 56 55 54 54 54 53 53 52 52 52 53 53 53 52 52 52 51 51 50 50 50 48 47 46
36 31 25 24 29 28 29 30 29 27 33 42 42 37 45 35 40 46 46 47 49 50 48 49 50 51 52 52 52 52 53 56 56 56 56 57 57 57 58 59 58 58 58 58 58 58 59 59 59 59 60 59 59 58 58 58 57 57 57 57 56 56 55 55 55 54 54 53 52 52 52 52 52 52 53 52 51 50 50 50 49 50 49 48 47 45
41 34 28 34 41 30 26 28 30 40 46 48 45 34 45 47 50 50 49 48 48 50 48 50 52 52 51 51 49 50 53 55 56 56 56 57 58 58 59 59 59 58 58 58 58 58 58 58 59 60 60 60 60 59 58 57 57 57 57 56 56 56 55 55 54 54 53 52 52 52 52 53 53 52 52 51 50 50 49 49 49 49 49 47 45 44
43 40 41 37 43 37 35 39 44 47 48 50 49 48 49 51 50 49 50 48 48 48 50 49 51 52 52 51 52 53 53 57 57 56 57 57 59 59 59 58 58 58 57 57 57 57 57 58 59 59 59 58 58 58 59 59 56 56 56 56 56 55 55 54 54 53 52 52 52 52 52 53 53 51 51 51 50 49 49 49 49 48 47 47 45 43
46 46 46 45 42 45 45 46 49 48 49 50 50 50 50 51 51 50 49 48 49 51 50 49 51 51 51 53 54 55 57 56 55 58 58 57 58 59 58 59 58 57 57 58 58 58 58 58 58 58 58 57 58 58 59 58 57 56 56 56 55 54 54 53 52 52 51 51 52 52 52 52 51 50 50 50 49 49 49 49 48 47 47 45 44 46
44 45 46 41 43 40 37 45 46 47 48 47 49 48 47 49 49 50 51 50 50 51 50 51 51 52 51 53 54 56 57 56 57 57 58 58 57 57 57 57 57 57 57 57 57 57 58 57 57 57 57 57 57 58 58 57 57 57 56 55 55 54 54 53 53 52 52 52 52 52 52 51 50 49 50 49 49 49 49 48 48 47 45 43 43 43
40 45 42 42 42 39 39 45 46 47 47 49 51 50 48 50 46 47 50 53 54 54 52 51 52 54 54 54 54 55 57 57 58 58 57 57 57 57 57 57 57 56 58 58 57 57 57 57 56 56 56 56 57 58 58 57 56 55 55 55 54 54 53 52 52 52 51 52 52 52 51 50 45 47 49 48 48 48 48 47 47 45 44 43 43 42
43 45 38 43 41 44 44 45 45 46 47 49 49 49 53 52 46 46 50 53 53 52 52 53 54 53 54 53 54 55 55 57 57 57 57 58 58 57 57 57 56 56 56 56 57 57 56 56 55 55 55 55 57 57 58 57 56 54 54 54 54 54 53 52 50 51 51 51 51 51 50 50 49 49 49 48 48 48 47 46 46 46 46 46 45 43
44 42 44 41 35 38 40 44 47 39 39 46 48 49 50 49 49 49 50 49 51 52 50 52 53 54 55 55 55 55 55 55 56 57 56 57 57 58 57 57 56 56 56 56 56 57 57 56 55 55 55 55 56 56 56 56 55 54 54 53 53 53 52 51 51 51 51 51 51 50 50 50 49 49 48 48 46 43 40 34 35 39 48 45 41 39
42 44 45 38 37 39 45 46 48 47 48 49 50 50 51 48 50 51 49 48 49 48 50 51 51 53 54 56 55 53 54 56 56 57 57 56 57 57 57 56 56 56 56 56 56 55 56 56 55 55 55 55 55 56 56 55 54 54 54 53 53 52 52 52 51 51 51 50 50 48 49 49 48 48 47 47 45 44 41 40 37 34 35 36 37 36